| time (UTC) | temp F | wind direction | speed MPH | gust MPH | rain 1hr in | rain 24hr in | rain mn in | humidity % | barometer mb |
| 20260507141856 | 58 | 155 | 1.0 | 2.0 | 0.00 | 0.00 | 0.00 | 48 | 1020.4 |
| 20260507141352 | 58 | 88 | 1.0 | 3.0 | 0.00 | 0.00 | 0.00 | 49 | 1020.4 |
| 20260507140849 | 57 | 213 | 1.0 | 2.0 | 0.00 | 0.00 | 0.00 | 51 | 1020.4 |
| 20260507140346 | 58 | 309 | 1.0 | 3.0 | 0.00 | 0.00 | 0.00 | 50 | 1020.3 |
| 20260507135844 | 57 | 173 | 0.0 | 3.0 | 0.00 | 0.00 | 0.00 | 52 | 1020.2 |
| 20260507135340 | 57 | 141 | 0.0 | 3.0 | 0.00 | 0.00 | 0.00 | 49 | 1020.4 |
| 20260507134838 | 57 | 114 | 0.0 | 3.0 | 0.00 | 0.00 | 0.00 | 51 | 1020.4 |
| 20260507134333 | 57 | 336 | 1.0 | 2.0 | 0.00 | 0.00 | 0.00 | 54 | 1020.2 |
| 20260507133830 | 57 | 128 | 0.0 | 1.0 | 0.00 | 0.00 | 0.00 | 61 | 1020.4 |
| 20260507133325 | 56 | 121 | 0.0 | 1.0 | 0.00 | 0.00 | 0.00 | 55 | 1020.4 |
| 20260507132824 | 55 | 124 | 1.0 | 2.0 | 0.00 | 0.00 | 0.00 | 57 | 1020.4 |
| 20260507132320 | 55 | 167 | 2.0 | 3.0 | 0.00 | 0.00 | 0.00 | 55 | 1020.2 |
| 20260507131817 | 54 | 124 | 0.0 | 1.0 | 0.00 | 0.00 | 0.00 | 63 | 1020.2 |
| 20260507131314 | 53 | 278 | 1.0 | 2.0 | 0.00 | 0.00 | 0.00 | 61 | 1020.3 |
| 20260507130810 | 53 | 119 | 0.0 | 2.0 | 0.00 | 0.00 | 0.00 | 61 | 1020.5 |
| 20260507130308 | 52 | 88 | 1.0 | 3.0 | 0.00 | 0.00 | 0.00 | 66 | 1020.2 |
| 20260507125807 | 51 | 128 | 0.0 | 2.0 | 0.00 | 0.00 | 0.00 | 64 | 1020.3 |
| 20260507125306 | 51 | 85 | 1.0 | 2.0 | 0.00 | 0.00 | 0.00 | 68 | 1020.2 |
| 20260507124801 | 50 | 133 | 0.0 | 1.0 | 0.00 | 0.00 | 0.00 | 70 | 1020.4 |
| 20260507124257 | 50 | 128 | 0.0 | 0.0 | 0.00 | 0.00 | 0.00 | 70 | 1020.6 |
| 20260507123756 | 47 | 79 | 0.0 | 0.0 | 0.00 | 0.00 | 0.00 | 78 | 1020.5 |
| 20260507123253 | 46 | 62 | 2.0 | 2.0 | 0.00 | 0.00 | 0.00 | 81 | 1020.3 |
| 20260507122748 | 45 | 105 | 0.0 | 0.0 | 0.00 | 0.00 | 0.00 | 89 | 1020.4 |
| 20260507122244 | 44 | 117 | 0.0 | 1.0 | 0.00 | 0.00 | 0.00 | 93 | 1020.1 |
| 20260507121740 | 43 | 23 | 1.0 | 3.0 | 0.00 | 0.00 | 0.00 | 99 | 1020.3 |
| 20260507121236 | 42 | 112 | 0.0 | 2.0 | 0.00 | 0.00 | 0.00 | 99 | 1020.3 |
| 20260507120732 | 41 | 111 | 0.0 | 0.0 | 0.00 | 0.00 | 0.00 | 99 | 1020.2 |
| 20260507120230 | 41 | 224 | 0.0 | 1.0 | 0.00 | 0.00 | 0.00 | 99 | 1020.2 |
| 20260507115726 | 41 | 110 | 0.0 | 0.0 | 0.00 | 0.00 | 0.00 | 99 | 1020.4 |
| 20260507115222 | 41 | 118 | 0.0 | 0.0 | 0.00 | 0.00 | 0.00 | 99 | 1020.4 |
| 20260507114717 | 40 | 115 | 0.0 | 0.0 | 0.00 | 0.00 | 0.00 | 99 | 1020.3 |
| 20260507114215 | 40 | 118 | 0.0 | 0.0 | 0.00 | 0.00 | 0.00 | 99 | 1020.2 |
| 20260507113712 | 40 | 121 | 0.0 | 0.0 | 0.00 | 0.00 | 0.00 | 99 | 1020.3 |
| 20260507113209 | 40 | 115 | 0.0 | 0.0 | 0.00 | 0.00 | 0.00 | 99 | 1020.5 |
| 20260507112707 | 40 | 119 | 0.0 | 0.0 | 0.00 | 0.00 | 0.00 | 99 | 1020.2 |
| 20260507112203 | 39 | 118 | 0.0 | 0.0 | 0.00 | 0.00 | 0.00 | 99 | 1020.3 |
| 20260507111701 | 39 | 119 | 0.0 | 0.0 | 0.00 | 0.00 | 0.00 | 99 | 1020.2 |
| 20260507111157 | 39 | 116 | 0.0 | 0.0 | 0.00 | 0.00 | 0.00 | 99 | 1020.0 |
| 20260507110653 | 39 | 118 | 0.0 | 0.0 | 0.00 | 0.00 | 0.00 | 99 | 1020.1 |
| 20260507110150 | 39 | 116 | 0.0 | 0.0 | 0.00 | 0.00 | 0.00 | 99 | 1020.1 |
| 20260507105647 | 39 | 111 | 0.0 | 0.0 | 0.00 | 0.00 | 0.00 | 99 | 1020.1 |
| 20260507105143 | 39 | 113 | 0.0 | 0.0 | 0.00 | 0.00 | 0.00 | 99 | 1020.1 |
| 20260507104641 | 39 | 113 | 0.0 | 0.0 | 0.00 | 0.00 | 0.00 | 99 | 1020.0 |
| 20260507104137 | 39 | 115 | 0.0 | 0.0 | 0.00 | 0.00 | 0.00 | 99 | 1020.0 |
| 20260507103633 | 39 | 115 | 0.0 | 0.0 | 0.00 | 0.00 | 0.00 | 99 | 1019.9 |
| 20260507103130 | 40 | 109 | 0.0 | 0.0 | 0.00 | 0.00 | 0.00 | 99 | 1019.9 |
| 20260507102626 | 40 | 117 | 0.0 | 0.0 | 0.00 | 0.00 | 0.00 | 99 | 1019.6 |
| 20260507102123 | 40 | 115 | 0.0 | 0.0 | 0.00 | 0.00 | 0.00 | 99 | 1019.6 |
| 20260507101618 | 40 | 114 | 0.0 | 1.0 | 0.00 | 0.00 | 0.00 | 99 | 1019.5 |
| 20260507101115 | 40 | 111 | 0.0 | 0.0 | 0.00 | 0.00 | 0.00 | 99 | 1019.5 |
| 20260507100612 | 40 | 121 | 0.0 | 1.0 | 0.00 | 0.00 | 0.00 | 99 | 1019.5 |
| 20260507100110 | 41 | 105 | 0.0 | 0.0 | 0.00 | 0.00 | 0.00 | 99 | 1019.6 |
| 20260507095608 | 41 | 119 | 0.0 | 0.0 | 0.00 | 0.00 | 0.00 | 99 | 1019.7 |
| 20260507095104 | 41 | 102 | 0.0 | 1.0 | 0.00 | 0.00 | 0.00 | 99 | 1019.6 |
| 20260507094600 | 41 | 115 | 0.0 | 0.0 | 0.00 | 0.00 | 0.00 | 99 | 1019.7 |
| 20260507094057 | 41 | 115 | 0.0 | 2.0 | 0.00 | 0.00 | 0.00 | 99 | 1019.8 |
| 20260507093555 | 41 | 107 | 0.0 | 0.0 | 0.00 | 0.00 | 0.00 | 99 | 1019.6 |
| 20260507093053 | 41 | 121 | 0.0 | 1.0 | 0.00 | 0.00 | 0.00 | 99 | 1019.6 |
| 20260507092549 | 41 | 142 | 0.0 | 0.0 | 0.00 | 0.00 | 0.00 | 99 | 1019.5 |
| 20260507092046 | 41 | 109 | 0.0 | 0.0 | 0.00 | 0.00 | 0.00 | 99 | 1019.7 |
| 20260507091543 | 40 | 120 | 0.0 | 0.0 | 0.00 | 0.00 | 0.00 | 99 | 1019.5 |
| 20260507091039 | 40 | 114 | 0.0 | 0.0 | 0.00 | 0.00 | 0.00 | 99 | 1019.5 |
| 20260507090535 | 40 | 115 | 0.0 | 0.0 | 0.00 | 0.00 | 0.00 | 99 | 1019.4 |
| 20260507090032 | 40 | 114 | 0.0 | 0.0 | 0.00 | 0.00 | 0.00 | 99 | 1019.6 |
| 20260507085529 | 40 | 117 | 0.0 | 0.0 | 0.00 | 0.00 | 0.00 | 99 | 1019.4 |
| 20260507085026 | 40 | 115 | 0.0 | 0.0 | 0.00 | 0.00 | 0.00 | 99 | 1019.3 |
| 20260507084522 | 40 | 118 | 0.0 | 0.0 | 0.00 | 0.00 | 0.00 | 99 | 1019.3 |
| 20260507084020 | 40 | 114 | 0.0 | 0.0 | 0.00 | 0.00 | 0.00 | 99 | 1019.1 |
| 20260507083515 | 40 | 115 | 0.0 | 0.0 | 0.00 | 0.00 | 0.00 | 99 | 1019.2 |
| 20260507083013 | 40 | 115 | 0.0 | 0.0 | 0.00 | 0.00 | 0.00 | 99 | 1019.1 |
| 20260507082509 | 41 | 114 | 0.0 | 0.0 | 0.00 | 0.00 | 0.00 | 99 | 1019.0 |
| 20260507082005 | 41 | 115 | 0.0 | 0.0 | 0.00 | 0.00 | 0.00 | 99 | 1018.9 |
| 20260507081502 | 41 | 116 | 0.0 | 0.0 | 0.00 | 0.00 | 0.00 | 99 | 1019.0 |
| 20260507080958 | 41 | 116 | 0.0 | 0.0 | 0.00 | 0.00 | 0.00 | 99 | 1019.0 |
| 20260507080454 | 41 | 116 | 0.0 | 0.0 | 0.00 | 0.00 | 0.00 | 99 | 1018.9 |
| 20260507075950 | 41 | 116 | 0.0 | 0.0 | 0.00 | 0.00 | 0.00 | 99 | 1019.0 |
| 20260507075446 | 42 | 116 | 0.0 | 0.0 | 0.00 | 0.00 | 0.00 | 99 | 1019.0 |
| 20260507074943 | 42 | 116 | 0.0 | 0.0 | 0.00 | 0.00 | 0.00 | 99 | 1018.8 |
| 20260507074440 | 42 | 116 | 0.0 | 0.0 | 0.00 | 0.00 | 0.00 | 99 | 1018.9 |
| 20260507073938 | 42 | 115 | 0.0 | 0.0 | 0.00 | 0.00 | 0.00 | 99 | 1018.9 |
| 20260507073434 | 42 | 118 | 0.0 | 0.0 | 0.00 | 0.00 | 0.00 | 99 | 1018.8 |
| 20260507072930 | 42 | 118 | 0.0 | 0.0 | 0.00 | 0.00 | 0.00 | 99 | 1018.9 |
| 20260507072428 | 42 | 118 | 0.0 | 0.0 | 0.00 | 0.00 | 0.00 | 99 | 1018.9 |
| 20260507071926 | 43 | 117 | 0.0 | 0.0 | 0.00 | 0.00 | 0.00 | 99 | 1018.8 |
| 20260507071422 | 43 | 118 | 0.0 | 0.0 | 0.00 | 0.00 | 0.00 | 99 | 1018.7 |
| 20260507070919 | 43 | 118 | 0.0 | 0.0 | 0.00 | 0.00 | 0.00 | 99 | 1018.8 |
| 20260507070417 | 43 | 120 | 0.0 | 0.0 | 0.00 | 0.00 | 0.00 | 99 | 1019.1 |
| 20260507065913 | 44 | 120 | 0.0 | 0.0 | 0.00 | 0.00 | 0.00 | 99 | 1018.8 |
| 20260507065410 | 44 | 120 | 0.0 | 0.0 | 0.00 | 0.00 | 0.00 | 99 | 1018.9 |
| 20260507064907 | 44 | 121 | 0.0 | 0.0 | 0.00 | 0.00 | 0.00 | 99 | 1018.8 |
| 20260507064405 | 44 | 118 | 0.0 | 0.0 | 0.00 | 0.00 | 0.00 | 99 | 1018.9 |
| 20260507063903 | 44 | 119 | 0.0 | 0.0 | 0.00 | 0.00 | 0.00 | 99 | 1019.0 |
| 20260507063400 | 44 | 119 | 0.0 | 0.0 | 0.00 | 0.00 | 0.00 | 99 | 1019.1 |
| 20260507062856 | 44 | 119 | 0.0 | 0.0 | 0.00 | 0.00 | 0.00 | 99 | 1019.0 |
| 20260507062353 | 44 | 115 | 0.0 | 0.0 | 0.00 | 0.00 | 0.00 | 99 | 1019.1 |
| 20260507061851 | 43 | 121 | 0.0 | 0.0 | 0.00 | 0.00 | 0.00 | 99 | 1019.1 |
| 20260507061349 | 43 | 115 | 0.0 | 0.0 | 0.00 | 0.00 | 0.00 | 99 | 1019.0 |
| 20260507060847 | 43 | 115 | 0.0 | 0.0 | 0.00 | 0.00 | 0.00 | 99 | 1019.0 |
| 20260507060343 | 43 | 115 | 0.0 | 0.0 | 0.00 | 0.00 | 0.00 | 99 | 1019.1 |
| 20260507055840 | 43 | 115 | 0.0 | 0.0 | 0.00 | 0.00 | 0.00 | 99 | 1019.0 |
| 20260507055335 | 43 | 119 | 0.0 | 0.0 | 0.00 | 0.00 | 0.00 | 99 | 1019.1 |
| 20260507054832 | 43 | 115 | 0.0 | 0.0 | 0.00 | 0.00 | 0.00 | 99 | 1019.3 |
| 20260507054328 | 43 | 114 | 0.0 | 0.0 | 0.00 | 0.00 | 0.00 | 99 | 1019.4 |
| 20260507053826 | 43 | 115 | 0.0 | 0.0 | 0.00 | 0.00 | 0.00 | 99 | 1019.1 |
| 20260507053323 | 43 | 114 | 0.0 | 0.0 | 0.00 | 0.00 | 0.00 | 99 | 1019.2 |
| 20260507052822 | 43 | 115 | 0.0 | 0.0 | 0.00 | 0.00 | 0.00 | 99 | 1019.4 |
| 20260507052318 | 43 | 115 | 0.0 | 0.0 | 0.00 | 0.00 | 0.00 | 99 | 1019.2 |
| 20260507051816 | 44 | 115 | 0.0 | 0.0 | 0.00 | 0.00 | 0.00 | 99 | 1019.2 |
| 20260507051314 | 44 | 115 | 0.0 | 0.0 | 0.00 | 0.00 | 0.00 | 99 | 1019.3 |
| 20260507050810 | 44 | 115 | 0.0 | 0.0 | 0.00 | 0.00 | 0.00 | 99 | 1019.1 |
| 20260507050306 | 44 | 114 | 0.0 | 0.0 | 0.00 | 0.00 | 0.00 | 99 | 1019.1 |
| 20260507045804 | 44 | 115 | 0.0 | 0.0 | 0.00 | 0.00 | 0.00 | 99 | 1019.2 |
| 20260507045300 | 44 | 118 | 0.0 | 0.0 | 0.00 | 0.00 | 0.00 | 99 | 1019.2 |
| 20260507044757 | 44 | 116 | 0.0 | 0.0 | 0.00 | 0.00 | 0.00 | 99 | 1018.9 |
| 20260507044253 | 44 | 116 | 0.0 | 0.0 | 0.00 | 0.00 | 0.00 | 99 | 1019.0 |
| 20260507043750 | 45 | 116 | 0.0 | 0.0 | 0.00 | 0.00 | 0.00 | 99 | 1018.9 |
| 20260507043247 | 45 | 116 | 0.0 | 0.0 | 0.00 | 0.00 | 0.00 | 99 | 1019.0 |
| 20260507042743 | 45 | 115 | 0.0 | 0.0 | 0.00 | 0.00 | 0.00 | 99 | 1019.1 |
| 20260507042238 | 45 | 115 | 0.0 | 0.0 | 0.00 | 0.00 | 0.00 | 99 | 1019.0 |
| 20260507041736 | 45 | 115 | 0.0 | 0.0 | 0.00 | 0.00 | 0.00 | 99 | 1019.2 |
| 20260507041232 | 45 | 115 | 0.0 | 0.0 | 0.00 | 0.00 | 0.00 | 99 | 1019.3 |
| 20260507040729 | 45 | 115 | 0.0 | 0.0 | 0.00 | 0.00 | 0.00 | 99 | 1019.1 |
| 20260507040225 | 45 | 115 | 0.0 | 0.0 | 0.00 | 0.00 | 0.00 | 99 | 1019.3 |
| 20260507035721 | 46 | 119 | 0.0 | 0.0 | 0.00 | 0.40 | 0.40 | 99 | 1019.2 |
| 20260507035217 | 46 | 120 | 0.0 | 0.0 | 0.00 | 0.40 | 0.40 | 98 | 1019.1 |
| 20260507034715 | 46 | 116 | 0.0 | 0.0 | 0.00 | 0.40 | 0.40 | 98 | 1019.2 |
| 20260507034212 | 46 | 114 | 0.0 | 0.0 | 0.00 | 0.40 | 0.40 | 98 | 1019.4 |
| 20260507033710 | 46 | 119 | 0.0 | 0.0 | 0.00 | 0.40 | 0.40 | 98 | 1019.5 |
| 20260507033207 | 46 | 119 | 0.0 | 0.0 | 0.00 | 0.40 | 0.40 | 98 | 1019.2 |
| 20260507032704 | 47 | 119 | 0.0 | 0.0 | 0.00 | 0.40 | 0.40 | 98 | 1019.3 |
| 20260507032200 | 47 | 119 | 0.0 | 0.0 | 0.00 | 0.40 | 0.40 | 98 | 1019.5 |
| 20260507031657 | 47 | 121 | 0.0 | 0.0 | 0.00 | 0.40 | 0.40 | 97 | 1019.4 |
| 20260507031153 | 47 | 115 | 0.0 | 0.0 | 0.00 | 0.40 | 0.40 | 97 | 1019.1 |
| 20260507030650 | 47 | 127 | 0.0 | 0.0 | 0.00 | 0.40 | 0.40 | 97 | 1019.3 |
| 20260507030148 | 47 | 115 | 0.0 | 0.0 | 0.00 | 0.40 | 0.40 | 96 | 1019.1 |
| 20260507025645 | 47 | 115 | 0.0 | 0.0 | 0.00 | 0.40 | 0.40 | 96 | 1019.1 |
| 20260507025142 | 47 | 115 | 0.0 | 0.0 | 0.00 | 0.40 | 0.40 | 96 | 1019.1 |
| 20260507024640 | 47 | 115 | 0.0 | 0.0 | 0.00 | 0.40 | 0.40 | 95 | 1019.0 |
| 20260507024137 | 47 | 114 | 0.0 | 0.0 | 0.00 | 0.40 | 0.40 | 95 | 1019.0 |
| 20260507023632 | 48 | 115 | 0.0 | 0.0 | 0.00 | 0.40 | 0.40 | 94 | 1018.8 |
| 20260507023130 | 48 | 114 | 0.0 | 0.0 | 0.00 | 0.40 | 0.40 | 94 | 1018.8 |
| 20260507022627 | 48 | 115 | 0.0 | 0.0 | 0.00 | 0.40 | 0.40 | 93 | 1018.8 |
| 20260507022122 | 49 | 114 | 0.0 | 0.0 | 0.00 | 0.40 | 0.40 | 93 | 1018.9 |
| 20260507021619 | 49 | 115 | 0.0 | 0.0 | 0.00 | 0.40 | 0.40 | 92 | 1018.9 |
| 20260507021115 | 49 | 115 | 0.0 | 0.0 | 0.00 | 0.40 | 0.40 | 91 | 1018.6 |
| 20260507020613 | 50 | 115 | 0.0 | 0.0 | 0.00 | 0.40 | 0.40 | 90 | 1018.7 |
| 20260507020109 | 50 | 114 | 0.0 | 0.0 | 0.00 | 0.40 | 0.40 | 89 | 1018.4 |
| 20260507015608 | 50 | 115 | 0.0 | 0.0 | 0.00 | 0.40 | 0.40 | 88 | 1018.2 |
| 20260507015105 | 50 | 115 | 0.0 | 0.0 | 0.00 | 0.40 | 0.40 | 88 | 1018.2 |
| 20260507014601 | 51 | 114 | 0.0 | 0.0 | 0.00 | 0.40 | 0.40 | 88 | 1018.2 |
| 20260507014057 | 51 | 114 | 0.0 | 0.0 | 0.00 | 0.40 | 0.40 | 88 | 1018.1 |
| 20260507013554 | 52 | 114 | 0.0 | 0.0 | 0.00 | 0.40 | 0.40 | 87 | 1018.2 |
| 20260507013051 | 52 | 115 | 0.0 | 0.0 | 0.00 | 0.40 | 0.40 | 86 | 1018.1 |
| 20260507012548 | 52 | 115 | 0.0 | 0.0 | 0.00 | 0.40 | 0.40 | 85 | 1018.0 |
| 20260507012044 | 52 | 115 | 0.0 | 0.0 | 0.00 | 0.40 | 0.40 | 84 | 1018.2 |
| 20260507011542 | 52 | 115 | 0.0 | 0.0 | 0.00 | 0.40 | 0.40 | 80 | 1018.3 |
| 20260507011038 | 53 | 115 | 0.0 | 0.0 | 0.00 | 0.40 | 0.40 | 78 | 1018.1 |
| 20260507010532 | 53 | 115 | 0.0 | 0.0 | 0.00 | 0.40 | 0.40 | 78 | 1018.1 |
| 20260507010029 | 53 | 114 | 0.0 | 0.0 | 0.00 | 0.40 | 0.40 | 77 | 1018.0 |
| 20260507005527 | 54 | 114 | 0.0 | 0.0 | 0.00 | 0.40 | 0.40 | 75 | 1018.1 |
| 20260507005023 | 55 | 114 | 0.0 | 0.0 | 0.00 | 0.40 | 0.40 | 72 | 1018.1 |
| 20260507004520 | 56 | 115 | 0.0 | 0.0 | 0.00 | 0.40 | 0.40 | 72 | 1018.0 |
| 20260507004018 | 56 | 114 | 0.0 | 0.0 | 0.00 | 0.40 | 0.40 | 68 | 1017.8 |
| 20260507003513 | 57 | 114 | 0.0 | 0.0 | 0.00 | 0.40 | 0.40 | 69 | 1018.0 |
| 20260507003008 | 57 | 115 | 0.0 | 0.0 | 0.00 | 0.40 | 0.40 | 69 | 1018.0 |
| 20260507002505 | 58 | 115 | 0.0 | 0.0 | 0.00 | 0.40 | 0.40 | 68 | 1017.8 |
| 20260507002001 | 58 | 115 | 0.0 | 0.0 | 0.00 | 0.40 | 0.40 | 67 | 1017.9 |
| 20260507001457 | 59 | 113 | 0.0 | 1.0 | 0.00 | 0.40 | 0.40 | 64 | 1018.0 |
| 20260507000955 | 59 | 141 | 0.0 | 1.0 | 0.00 | 0.40 | 0.40 | 59 | 1017.9 |
| 20260507000451 | 59 | 158 | 0.0 | 1.0 | 0.00 | 0.40 | 0.40 | 63 | 1017.7 |
| 20260506235946 | 59 | 115 | 0.0 | 1.0 | 0.00 | 0.40 | 0.40 | 63 | 1017.7 |
| 20260506235444 | 59 | 51 | 1.0 | 1.0 | 0.00 | 0.40 | 0.40 | 62 | 1017.8 |
| 20260506234939 | 59 | 147 | 1.0 | 1.0 | 0.00 | 0.40 | 0.40 | 59 | 1017.7 |
| 20260506234437 | 59 | 118 | 0.0 | 2.0 | 0.00 | 0.40 | 0.40 | 57 | 1017.8 |
| 20260506233934 | 59 | 140 | 0.0 | 5.0 | 0.00 | 0.40 | 0.40 | 59 | 1017.5 |
| 20260506233431 | 60 | 336 | 4.0 | 7.0 | 0.00 | 0.40 | 0.40 | 55 | 1017.3 |
| 20260506232928 | 59 | 191 | 0.0 | 7.0 | 0.00 | 0.40 | 0.40 | 60 | 1017.7 |
| 20260506232424 | 59 | 113 | 0.0 | 2.0 | 0.00 | 0.40 | 0.40 | 62 | 1017.5 |
| 20260506231920 | 59 | 130 | 0.0 | 3.0 | 0.00 | 0.40 | 0.40 | 62 | 1017.7 |
| 20260506231418 | 60 | 114 | 1.0 | 1.0 | 0.00 | 0.40 | 0.40 | 69 | 1017.7 |
| 20260506230915 | 60 | 120 | 0.0 | 2.0 | 0.00 | 0.40 | 0.40 | 63 | 1017.8 |
| 20260506230411 | 60 | 349 | 3.0 | 5.0 | 0.00 | 0.40 | 0.40 | 61 | 1017.7 |
| 20260506225908 | 60 | 134 | 0.0 | 1.0 | 0.00 | 0.40 | 0.40 | 63 | 1017.7 |
| 20260506225405 | 60 | 116 | 0.0 | 2.0 | 0.00 | 0.40 | 0.40 | 59 | 1017.6 |
| 20260506224902 | 60 | 39 | 1.0 | 3.0 | 0.00 | 0.40 | 0.40 | 57 | 1017.6 |
| 20260506224359 | 60 | 284 | 3.0 | 5.0 | 0.00 | 0.40 | 0.40 | 58 | 1017.2 |
| 20260506223855 | 60 | 11 | 2.0 | 2.0 | 0.00 | 0.40 | 0.40 | 60 | 1017.2 |
| 20260506223350 | 61 | 111 | 2.0 | 6.0 | 0.00 | 0.40 | 0.40 | 56 | 1017.3 |
| 20260506222848 | 61 | 177 | 0.0 | 1.0 | 0.00 | 0.40 | 0.40 | 55 | 1017.1 |
| 20260506222344 | 61 | 108 | 0.0 | 0.0 | 0.00 | 0.40 | 0.40 | 57 | 1017.2 |
| 20260506221842 | 61 | 83 | 0.0 | 0.0 | 0.00 | 0.40 | 0.40 | 56 | 1017.0 |
| 20260506221339 | 61 | 79 | 0.0 | 0.0 | 0.00 | 0.40 | 0.40 | 56 | 1017.0 |
| 20260506220836 | 61 | 326 | 1.0 | 3.0 | 0.00 | 0.40 | 0.40 | 51 | 1017.3 |
| 20260506220332 | 62 | 85 | 0.0 | 0.0 | 0.00 | 0.40 | 0.40 | 53 | 1017.0 |
| 20260506215829 | 62 | 262 | 0.0 | 1.0 | 0.00 | 0.40 | 0.40 | 53 | 1017.2 |
| 20260506215324 | 62 | 273 | 1.0 | 3.0 | 0.00 | 0.40 | 0.40 | 52 | 1017.1 |
| 20260506214820 | 62 | 126 | 0.0 | 1.0 | 0.00 | 0.40 | 0.40 | 52 | 1017.1 |
| 20260506214317 | 62 | 95 | 1.0 | 2.0 | 0.00 | 0.40 | 0.40 | 54 | 1017.1 |
| 20260506213816 | 61 | 130 | 0.0 | 5.0 | 0.00 | 0.40 | 0.40 | 55 | 1017.3 |
| 20260506213313 | 62 | 110 | 0.0 | 2.0 | 0.00 | 0.40 | 0.40 | 57 | 1017.1 |
| 20260506212810 | 62 | 344 | 3.0 | 6.0 | 0.00 | 0.40 | 0.40 | 51 | 1017.2 |
| 20260506212307 | 62 | 197 | 0.0 | 0.0 | 0.00 | 0.40 | 0.40 | 53 | 1017.3 |
| 20260506211800 | 62 | 60 | 1.0 | 2.0 | 0.00 | 0.40 | 0.40 | 51 | 1017.6 |
| 20260506211257 | 62 | 216 | 1.0 | 3.0 | 0.00 | 0.40 | 0.40 | 52 | 1017.5 |
| 20260506210754 | 62 | 103 | 0.0 | 1.0 | 0.00 | 0.40 | 0.40 | 50 | 1017.4 |
| 20260506210251 | 63 | 189 | 3.0 | 5.0 | 0.00 | 0.40 | 0.40 | 50 | 1017.5 |
| 20260506205748 | 63 | 110 | 0.0 | 2.0 | 0.00 | 0.40 | 0.40 | 47 | 1017.4 |
| 20260506205244 | 64 | 72 | 1.0 | 3.0 | 0.00 | 0.40 | 0.40 | 47 | 1017.1 |
| 20260506204741 | 64 | 202 | 2.0 | 2.0 | 0.00 | 0.40 | 0.40 | 52 | 1017.6 |
| 20260506204238 | 64 | 127 | 0.0 | 2.0 | 0.00 | 0.40 | 0.40 | 47 | 1017.4 |
| 20260506203736 | 63 | 267 | 2.0 | 5.0 | 0.00 | 0.40 | 0.40 | 50 | 1017.7 |
| 20260506203233 | 63 | 280 | 2.0 | 2.0 | 0.00 | 0.40 | 0.40 | 50 | 1017.6 |
| 20260506202730 | 63 | 284 | 3.0 | 5.0 | 0.00 | 0.40 | 0.40 | 50 | 1017.5 |
| 20260506202227 | 64 | 351 | 3.0 | 6.0 | 0.00 | 0.40 | 0.40 | 54 | 1017.4 |
| 20260506201724 | 64 | 319 | 4.0 | 6.0 | 0.00 | 0.40 | 0.40 | 49 | 1017.3 |
| 20260506201220 | 64 | 114 | 0.0 | 5.0 | 0.00 | 0.40 | 0.40 | 52 | 1017.2 |
| 20260506200717 | 65 | 125 | 1.0 | 2.0 | 0.00 | 0.40 | 0.40 | 52 | 1017.1 |
| 20260506200209 | 64 | 276 | 2.0 | 3.0 | 0.00 | 0.40 | 0.40 | 51 | 1017.4 |
| 20260506195705 | 64 | 24 | 1.0 | 5.0 | 0.00 | 0.40 | 0.40 | 53 | 1017.2 |
| 20260506195201 | 64 | 226 | 1.0 | 3.0 | 0.00 | 0.40 | 0.40 | 49 | 1017.4 |
| 20260506194659 | 65 | 348 | 3.0 | 6.0 | 0.00 | 0.40 | 0.40 | 48 | 1017.3 |
| 20260506194155 | 65 | 170 | 0.0 | 2.0 | 0.00 | 0.40 | 0.40 | 53 | 1017.6 |
| 20260506193653 | 63 | 95 | 1.0 | 6.0 | 0.00 | 0.40 | 0.40 | 54 | 1017.7 |
| 20260506193149 | 64 | 210 | 3.0 | 7.0 | 0.00 | 0.40 | 0.40 | 50 | 1017.8 |
| 20260506192646 | 64 | 64 | 0.0 | 2.0 | 0.00 | 0.40 | 0.40 | 52 | 1017.5 |
| 20260506192142 | 64 | 155 | 1.0 | 5.0 | 0.00 | 0.40 | 0.40 | 53 | 1017.5 |
| 20260506191639 | 64 | 283 | 2.0 | 2.0 | 0.00 | 0.40 | 0.40 | 49 | 1017.5 |
| 20260506191135 | 64 | 53 | 2.0 | 2.0 | 0.00 | 0.40 | 0.40 | 51 | 1017.3 |
| 20260506190633 | 63 | 191 | 1.0 | 5.0 | 0.00 | 0.40 | 0.40 | 49 | 1017.4 |
| 20260506190129 | 63 | 122 | 1.0 | 8.0 | 0.00 | 0.40 | 0.40 | 52 | 1017.5 |
| 20260506185627 | 64 | 123 | 0.0 | 5.0 | 0.00 | 0.40 | 0.40 | 48 | 1017.4 |
| 20260506185123 | 64 | 263 | 3.0 | 6.0 | 0.00 | 0.40 | 0.40 | 50 | 1017.6 |
| 20260506184620 | 63 | 126 | 1.0 | 2.0 | 0.00 | 0.40 | 0.40 | 52 | 1017.6 |
| 20260506184117 | 63 | 144 | 1.0 | 2.0 | 0.00 | 0.40 | 0.40 | 54 | 1017.6 |
| 20260506183614 | 63 | 229 | 2.0 | 3.0 | 0.00 | 0.40 | 0.40 | 53 | 1017.5 |
| 20260506183110 | 62 | 60 | 1.0 | 8.0 | 0.00 | 0.40 | 0.40 | 53 | 1017.4 |
| 20260506182608 | 63 | 178 | 1.0 | 5.0 | 0.00 | 0.40 | 0.40 | 53 | 1017.5 |
| 20260506182105 | 62 | 205 | 1.0 | 2.0 | 0.00 | 0.40 | 0.40 | 52 | 1017.4 |
| 20260506181603 | 61 | 339 | 4.0 | 8.0 | 0.00 | 0.40 | 0.40 | 55 | 1017.3 |
| 20260506181059 | 61 | 9 | 0.0 | 8.0 | 0.00 | 0.40 | 0.40 | 55 | 1017.3 |
| 20260506180556 | 62 | 89 | 1.0 | 9.0 | 0.00 | 0.40 | 0.40 | 58 | 1017.3 |
| 20260506180053 | 62 | 108 | 1.0 | 5.0 | 0.00 | 0.40 | 0.40 | 59 | 1017.1 |
| 20260506175549 | 62 | 254 | 2.0 | 3.0 | 0.00 | 0.40 | 0.40 | 58 | 1017.1 |
| 20260506175045 | 62 | 348 | 3.0 | 7.0 | 0.00 | 0.40 | 0.40 | 60 | 1017.3 |
| 20260506174544 | 62 | 313 | 5.0 | 8.0 | 0.00 | 0.40 | 0.40 | 59 | 1017.1 |
| 20260506174039 | 62 | 213 | 0.0 | 8.0 | 0.00 | 0.40 | 0.40 | 55 | 1017.5 |
| 20260506173538 | 62 | 335 | 3.0 | 5.0 | 0.00 | 0.40 | 0.40 | 58 | 1017.4 |
| 20260506173034 | 62 | 144 | 1.0 | 3.0 | 0.00 | 0.40 | 0.40 | 53 | 1017.3 |
| 20260506172532 | 62 | 146 | 1.0 | 3.0 | 0.00 | 0.40 | 0.40 | 59 | 1017.4 |
| 20260506172028 | 62 | 249 | 2.0 | 6.0 | 0.00 | 0.40 | 0.40 | 58 | 1017.5 |
| 20260506171525 | 61 | 75 | 0.0 | 3.0 | 0.00 | 0.40 | 0.40 | 61 | 1017.9 |
| 20260506171023 | 61 | 151 | 2.0 | 5.0 | 0.00 | 0.40 | 0.40 | 62 | 1017.8 |
| 20260506170520 | 60 | 106 | 1.0 | 3.0 | 0.00 | 0.40 | 0.40 | 58 | 1017.6 |
| 20260506170012 | 60 | 336 | 3.0 | 8.0 | 0.00 | 0.40 | 0.40 | 55 | 1017.7 |
| 20260506165510 | 61 | 345 | 4.0 | 5.0 | 0.00 | 0.40 | 0.40 | 56 | 1017.8 |
| 20260506165006 | 61 | 186 | 3.0 | 3.0 | 0.00 | 0.40 | 0.40 | 56 | 1017.8 |
| 20260506164503 | 60 | 125 | 0.0 | 2.0 | 0.00 | 0.40 | 0.40 | 57 | 1017.7 |
| 20260506164000 | 60 | 126 | 2.0 | 6.0 | 0.00 | 0.40 | 0.40 | 57 | 1017.8 |
| 20260506163456 | 61 | 121 | 2.0 | 2.0 | 0.00 | 0.40 | 0.40 | 54 | 1018.1 |
| 20260506162950 | 60 | 183 | 3.0 | 6.0 | 0.00 | 0.40 | 0.40 | 61 | 1018.0 |
| 20260506162448 | 60 | 302 | 2.0 | 5.0 | 0.00 | 0.40 | 0.40 | 61 | 1018.0 |
| 20260506161945 | 59 | 355 | 5.0 | 7.0 | 0.00 | 0.40 | 0.40 | 62 | 1017.8 |
| 20260506161443 | 60 | 193 | 3.0 | 5.0 | 0.00 | 0.40 | 0.40 | 60 | 1017.9 |
| 20260506160940 | 59 | 124 | 2.0 | 3.0 | 0.00 | 0.40 | 0.40 | 65 | 1018.0 |
| 20260506160438 | 59 | 109 | 1.0 | 6.0 | 0.00 | 0.40 | 0.40 | 62 | 1018.0 |
| 20260506155935 | 59 | 243 | 3.0 | 7.0 | 0.00 | 0.40 | 0.40 | 65 | 1017.9 |
| 20260506155433 | 59 | 342 | 4.0 | 6.0 | 0.00 | 0.40 | 0.40 | 62 | 1018.2 |
| 20260506153559 | 58 | 200 | 3.0 | 5.0 | 0.00 | 0.40 | 0.40 | 64 | 1017.7 |
| 20260506153057 | 59 | 209 | 2.0 | 6.0 | 0.00 | 0.40 | 0.40 | 62 | 1017.5 |
| 20260506152553 | 58 | 197 | 1.0 | 5.0 | 0.00 | 0.40 | 0.40 | 66 | 1017.4 |
| 20260506152052 | 58 | 65 | 2.0 | 5.0 | 0.00 | 0.40 | 0.40 | 65 | 1017.4 |
| 20260506151549 | 58 | 153 | 2.0 | 3.0 | 0.00 | 0.40 | 0.40 | 62 | 1017.2 |
| 20260506151046 | 59 | 33 | 1.0 | 2.0 | 0.00 | 0.40 | 0.40 | 67 | 1017.3 |
| 20260506150542 | 57 | 246 | 1.0 | 7.0 | 0.00 | 0.40 | 0.40 | 66 | 1017.4 |
| 20260506150040 | 56 | 297 | 2.0 | 3.0 | 0.00 | 0.40 | 0.40 | 70 | 1017.4 |
| 20260506145536 | 56 | 250 | 2.0 | 5.0 | 0.00 | 0.40 | 0.40 | 67 | 1017.3 |
| 20260506145034 | 57 | 302 | 2.0 | 5.0 | 0.00 | 0.40 | 0.40 | 69 | 1017.1 |
| 20260506144530 | 57 | 86 | 0.0 | 2.0 | 0.00 | 0.40 | 0.40 | 68 | 1017.2 |
| 20260506144028 | 56 | 190 | 0.0 | 5.0 | 0.00 | 0.40 | 0.40 | 71 | 1017.3 |
| 20260506143525 | 55 | 340 | 2.0 | 3.0 | 0.00 | 0.40 | 0.40 | 69 | 1017.2 |
| 20260506143024 | 56 | 346 | 3.0 | 8.0 | 0.00 | 0.40 | 0.40 | 70 | 1017.2 |
| 20260506142521 | 56 | 138 | 0.0 | 2.0 | 0.00 | 0.40 | 0.40 | 69 | 1017.0 |